Weather Roundup
Issued by NWS Chicago, IL

Home | Current Version | Previous Version | Graphics & Text | Print | Product List | Glossary On
Versions: 1 2 3 4 5 6 7 8 9 10 11 12 13 14 15 16 17 18 19 20 21 22 23 24 25 26 27 28 29 30 31 32 33 34 35 36 37 38 39 40 41 42 43 44 45 46 47 48 49 50
000
NZUS59 KLOT 261210
HRRLOT

CHICAGO AREA WEATHER ROUNDUP
NATIONAL WEATHER SERVICE CHICAGO/ROMEOVILLE IL
700 AM CDT SAT JUL 26 2014

NOTE: "FAIR" INDICATES FEW OR NO CLOUDS BELOW 12,000 FEET WITH NO
SIGNIFICANT WEATHER AND/OR OBSTRUCTIONS TO VISIBILITY.

* THESE STATIONS ARE NOT UNDER NWS QUALITY CONTROL. THEY ALSO MAY NOT
  REPORT WEATHER SUCH AS PRECIPITATION OR FOG.

ILZ005-006-012>014-019>023-261300-
NORTHEAST ILLINOIS

CITY           SKY/WX    TMP DP  RH WIND       PRES   REMARKS
OHARE          CLOUDY    70  59  68 S7        29.84F
6HR MIN TEMP:  68; 6HR MAX TEMP:  70;

MIDWAY         CLOUDY    71  62  73 SW8       29.85S
6HR MIN TEMP:  70; 6HR MAX TEMP:  72;

AURORA         CLOUDY    68  62  81 S6        29.86S
6HR MIN TEMP:  67; 6HR MAX TEMP:  68; 6HR PCP: TRACE;

LANSING*       CLOUDY    68  60  76 S6        29.86S
JOLIET*        PTSUNNY   68  62  80 CALM      29.86S
WAUKEGAN       CLOUDY    66  60  81 CALM      29.85S
6HR MIN TEMP:  61; 6HR MAX TEMP:  67;

DUPAGE AIRPORT CLOUDY    69  62  78 S7        29.84S
6HR MIN TEMP:  66; 6HR MAX TEMP:  69; 6HR PCP: TRACE;

WHEELING       CLOUDY    71  61  70 S7        29.85F
6HR MIN TEMP:  68; 6HR MAX TEMP:  71;

KANKAKEE*      CLOUDY    67  63  89 S5        29.87R
MORRIS*        CLOUDY    69  64  83 S5        29.85R
LEWIS AIRPORT* LGT RAIN  68  62  80 SW6       29.86R
NORTHERLY IS     N/A     70  60  70 S7          N/A
$$

WIZ051-052-058>065-066-070>072-261300-
SOUTHEAST WISCONSIN

CITY           SKY/WX    TMP DP  RH WIND       PRES   REMARKS
MILWAUKEE      CLOUDY    66  60  81 S3        29.85F
6HR MIN TEMP:  63; 6HR MAX TEMP:  66;

KENOSHA*       CLOUDY    64  62  93 CALM      29.86S
RACINE*        CLOUDY    65  60  84 CALM      29.88S
BURLINGTON     CLOUDY    62  61  94 CALM      29.85S
WAUKESHA       PTSUNNY   63  59  88 S5        29.86S
WEST BEND      MOSUNNY   61  57  88 CALM      29.85R
$$

INZ001>003-010>013-019-020-261300-
NORTHWEST INDIANA

CITY           SKY/WX    TMP DP  RH WIND       PRES   REMARKS
GARY*          PTSUNNY   70  61  73 S3        29.86F
MICHIGAN CITY* NOT AVBL
RENSSELAER*    NOT AVBL
VALPARAISO     PTSUNNY   65  60  84 S5        29.88S
$$

LMZ740>746-261300-
SOUTHERN LAKE MICHIGAN

STATION/POSITION TIME  SKY/WX   TEMP WIND        PRES    VSBY
                                AIR  DIR/SP/G
                 (UTC)          (F)  (DEG/KT/KT) (MB)    (MI)
HARRISON CRIB    1200            67  170/  8/ 10   N/A
BURNHAM HARBOR   1200            70  190/  3/  9   N/A
CALUMET HARBOR   1200            69  210/  5/  7 1009.8R
BURNS HARBOR     NOT AVBL
MICHIGAN CITY    1200            66  170/  8/ 12   N/A
$$

ABBREVIATIONS USED IN REMARKS
   TC - TEMPERATURE IN CELSIUS
  WCI - WIND CHILL INDEX
   HX - HEAT INDEX
  VSB - VISIBILITY
$$


USA.gov is the U.S. government's official web portal to all federal, state and local government web resources and services.